2021-006Y (47435 NORAD) Tracking and Keplerian Element Data

This shows tracking and keplerian element data for the satellite.

Feedback or suggestion? Click here.




ElementValue
Catalog47435
Name2021-006Y
Epoch Orbit477
Epoch Day54.15908279
Epoch Year2021
RAAN117.3912
Inclination97.5068
Eccentricity0.0015594
Argument of Perigee143.0669
Mean Anonmoly217.1639
Mean Motion15.13199024
Decay Rate5.72E-06
L11 47435U 21006Y 21054.15908279 .00000572 00000-0 35820-4 0 9991
L22 47435 97.5068 117.3912 0015594 143.0669 217.1639 15.13199024 4779

Live tracking and technical data element details for 2021-006Y (NORAD 47435). 2021-006Y can be tracked NOW for your location showing map with azimuth and elevation plus other details from your city location.

Track the satellite on the map from your city or location and see movement details for azimuth, elevation, latitude, longitude, range, height, and movement on the map or in text.







IsCatalogInMostPopularTable: catalog: 47435, numindb: 16
Update: records affected: 1



GetName: 47435 2021-006Y

Hit Count: updated at: Fri, 16 Apr 2021 10:59:37 GMT